SVA027 KDEN-KLAX

Flight info

Callsign SVA027
Flight time 2h 0m
Altitude 38000
Route BAYLR6 TEHRU JASSE Q90 DNERO ANJLL4
Aircraft B77W/H-SDE1E2E3FGHIJ2J3J4J5M1RWXY/LB1D1

Departure

Time 2026-04-22 18:46
Airport Denver International Airport (KDEN)

Arrival

Time 2026-04-22 20:46
Airport Los Angeles International Airport (KLAX)
Time Latitude Longitude Altitude Speed Heading
2026-04-22 18:16 39.85801 -104.67460 5368 ft 0 kts 360°
2026-04-22 18:32 39.85792 -104.67460 5371 ft 4 kts 360°
2026-04-22 18:32 39.85765 -104.67460 5367 ft 4 kts 360°
2026-04-22 18:33 39.85738 -104.67460 5366 ft 4 kts 360°
2026-04-22 18:33 39.85712 -104.67460 5367 ft 2 kts 360°
2026-04-22 18:33 39.85711 -104.67460 5367 ft 0 kts 360°
2026-04-22 18:36 39.85719 -104.67451 5366 ft 2 kts 47°
2026-04-22 18:37 39.85715 -104.67400 5367 ft 8 kts 100°
2026-04-22 18:37 39.85700 -104.67330 5368 ft 10 kts 106°
2026-04-22 18:37 39.85686 -104.67268 5368 ft 11 kts 107°
2026-04-22 18:37 39.85662 -104.67132 5368 ft 12 kts 94°
2026-04-22 18:38 39.85661 -104.67023 5368 ft 12 kts 90°
2026-04-22 18:38 39.85661 -104.66912 5371 ft 12 kts 90°
2026-04-22 18:38 39.85660 -104.66801 5371 ft 12 kts 90°
2026-04-22 18:39 39.85660 -104.66580 5371 ft 12 kts 79°
2026-04-22 18:39 39.85678 -104.66472 5368 ft 12 kts 86°
2026-04-22 18:39 39.85678 -104.66361 5368 ft 12 kts 91°
2026-04-22 18:39 39.85692 -104.66257 5368 ft 12 kts 47°
2026-04-22 18:40 39.85771 -104.66231 5369 ft 12 kts
2026-04-22 18:40 39.85855 -104.66231 5369 ft 12 kts
2026-04-22 18:40 39.85926 -104.66231 5369 ft 7 kts
2026-04-22 18:40 39.85971 -104.66230 5369 ft 5 kts
2026-04-22 18:41 39.85981 -104.66230 5369 ft 0 kts
2026-04-22 18:41 39.85982 -104.66230 5369 ft 0 kts
2026-04-22 18:41 39.85984 -104.66230 5369 ft 0 kts
2026-04-22 18:41 39.85989 -104.66230 5366 ft 2 kts
2026-04-22 18:42 39.86031 -104.66230 5369 ft 9 kts
2026-04-22 18:42 39.86093 -104.66216 5366 ft 9 kts 39°
2026-04-22 18:42 39.86106 -104.66134 5368 ft 9 kts 88°
2026-04-22 18:42 39.86108 -104.66046 5366 ft 9 kts 89°
2026-04-22 18:43 39.86085 -104.66016 5367 ft 5 kts 166°
2026-04-22 18:43 39.86055 -104.66014 5368 ft 0 kts 180°
2026-04-22 18:45 39.85994 -104.66015 5367 ft 27 kts 181°
2026-04-22 18:45 39.85541 -104.66020 5369 ft 101 kts 180°
2026-04-22 18:45 39.84619 -104.66030 5371 ft 160 kts 180°
2026-04-22 18:45 39.83422 -104.66058 5747 ft 179 kts 182°
2026-04-22 18:46 39.82147 -104.66118 6309 ft 187 kts 186°
2026-04-22 18:46 39.80825 -104.66178 6880 ft 196 kts 185°
2026-04-22 18:46 39.79471 -104.66505 7487 ft 200 kts 205°
2026-04-22 18:46 39.78304 -104.67600 7777 ft 225 kts 222°
2026-04-22 18:47 39.77084 -104.69090 8075 ft 251 kts 223°
2026-04-22 18:47 39.75894 -104.70751 8803 ft 257 kts 236°
2026-04-22 18:47 39.75385 -104.73006 9441 ft 273 kts 269°
2026-04-22 18:47 39.75845 -104.75463 9953 ft 287 kts 283°
2026-04-22 18:48 39.76320 -104.78017 9997 ft 294 kts 276°
2026-04-22 18:48 39.76628 -104.80749 10206 ft 320 kts 274°
2026-04-22 18:48 39.76916 -104.83750 10496 ft 348 kts 274°
2026-04-22 18:48 39.77221 -104.86919 11288 ft 357 kts 274°
2026-04-22 18:49 39.77462 -104.90144 12161 ft 360 kts 267°
2026-04-22 18:49 39.77022 -104.93331 13130 ft 357 kts 251°
2026-04-22 18:49 39.76240 -104.96408 14007 ft 366 kts 252°
2026-04-22 18:49 39.75515 -104.99584 15173 ft 366 kts 253°
2026-04-22 18:50 39.74812 -105.02757 16466 ft 365 kts 252°
2026-04-22 18:50 39.73951 -105.05866 17651 ft 367 kts 246°
2026-04-22 18:50 39.72926 -105.08926 18648 ft 372 kts 245°
2026-04-22 18:50 39.71854 -105.12017 19484 ft 380 kts 245°
2026-04-22 18:51 39.70771 -105.15183 20340 ft 385 kts 245°
2026-04-22 18:51 39.69696 -105.18391 21254 ft 390 kts 245°
2026-04-22 18:51 39.68982 -105.20552 21847 ft 394 kts 245°
2026-04-22 18:51 39.67900 -105.23846 22710 ft 400 kts 245°
2026-04-22 18:52 39.66801 -105.27193 23504 ft 406 kts 245°
2026-04-22 18:52 39.65687 -105.30578 24313 ft 407 kts 246°
2026-04-22 18:52 39.64576 -105.33952 25194 ft 407 kts 246°
2026-04-22 18:52 39.63454 -105.37352 25906 ft 412 kts 246°
2026-04-22 18:53 39.62318 -105.40797 26497 ft 418 kts 246°
2026-04-22 18:53 39.61162 -105.44299 27177 ft 423 kts 247°
2026-04-22 18:53 39.59998 -105.47821 27875 ft 426 kts 247°
2026-04-22 18:53 39.58822 -105.51371 28513 ft 431 kts 247°
2026-04-22 18:54 39.57645 -105.54906 29103 ft 434 kts 247°
2026-04-22 18:54 39.56426 -105.58560 29707 ft 437 kts 247°
2026-04-22 18:54 39.55234 -105.62141 30171 ft 440 kts 248°
2026-04-22 18:54 39.54117 -105.65850 30665 ft 442 kts 251°
2026-04-22 18:55 39.53089 -105.69578 31386 ft 437 kts 251°
2026-04-22 18:55 39.52096 -105.73284 32029 ft 434 kts 252°
2026-04-22 18:55 39.51104 -105.76978 32533 ft 434 kts 252°
2026-04-22 18:55 39.50101 -105.80666 33044 ft 434 kts 251°
2026-04-22 18:56 39.49090 -105.84347 33574 ft 433 kts 251°
2026-04-22 18:56 39.48074 -105.88011 34063 ft 432 kts 251°
2026-04-22 18:56 39.47053 -105.91676 34463 ft 433 kts 251°
2026-04-22 18:56 39.46027 -105.95351 34813 ft 435 kts 250°
2026-04-22 18:57 39.44999 -105.99021 35275 ft 433 kts 250°
2026-04-22 18:57 39.43974 -106.02678 35800 ft 430 kts 250°
2026-04-22 18:57 39.42954 -106.06316 36235 ft 430 kts 250°
2026-04-22 18:57 39.41934 -106.09951 36512 ft 432 kts 250°
2026-04-22 18:58 39.40907 -106.13608 36815 ft 433 kts 250°
2026-04-22 18:58 39.39891 -106.17219 37188 ft 433 kts 250°
2026-04-22 18:58 39.38847 -106.20919 37550 ft 433 kts 250°
2026-04-22 18:58 39.37810 -106.24595 37674 ft 437 kts 249°
2026-04-22 18:59 39.36763 -106.28302 38043 ft 439 kts 249°
2026-04-22 18:59 39.35716 -106.32007 38064 ft 438 kts 249°
2026-04-22 18:59 39.33647 -106.39318 38083 ft 435 kts 249°
2026-04-22 19:00 39.31559 -106.46670 38058 ft 437 kts 249°
2026-04-22 19:00 39.29461 -106.54047 38008 ft 438 kts 249°
2026-04-22 19:01 39.27351 -106.61443 37898 ft 439 kts 250°
2026-04-22 19:01 39.25242 -106.68813 37946 ft 437 kts 250°
2026-04-22 19:02 39.22416 -106.75677 38016 ft 432 kts 235°
2026-04-22 19:02 39.18766 -106.81806 38006 ft 430 kts 235°
2026-04-22 19:03 39.15180 -106.87913 37758 ft 430 kts 236°
2026-04-22 19:03 39.11586 -106.94093 37794 ft 432 kts 236°
2026-04-22 19:04 39.07983 -107.00286 37778 ft 431 kts 236°
2026-04-22 19:04 39.04400 -107.06467 37856 ft 431 kts 236°
2026-04-22 19:05 39.00825 -107.12611 37852 ft 425 kts 236°
2026-04-22 19:05 38.97287 -107.18673 37849 ft 424 kts 236°
2026-04-22 19:06 38.93749 -107.24722 37844 ft 422 kts 236°
2026-04-22 19:07 38.88465 -107.33744 37874 ft 421 kts 236°
2026-04-22 19:07 38.84979 -107.39680 37872 ft 419 kts 236°
2026-04-22 19:08 38.81473 -107.45639 37867 ft 417 kts 236°
2026-04-22 19:08 38.77992 -107.51545 37866 ft 412 kts 236°
2026-04-22 19:09 38.74548 -107.57375 37866 ft 409 kts 236°
2026-04-22 19:09 38.71126 -107.63160 37841 ft 407 kts 236°
2026-04-22 19:10 38.67706 -107.68932 37843 ft 407 kts 236°
2026-04-22 19:10 38.64289 -107.74689 37735 ft 405 kts 237°
2026-04-22 19:11 38.60887 -107.80412 37823 ft 411 kts 237°
2026-04-22 19:11 38.59144 -107.83343 37995 ft 416 kts 237°
2026-04-22 19:11 38.57388 -107.86291 38001 ft 417 kts 237°
2026-04-22 19:12 38.53874 -107.92174 37995 ft 416 kts 237°
2026-04-22 19:12 38.50372 -107.98026 37997 ft 414 kts 237°
2026-04-22 19:13 38.46874 -108.03864 37977 ft 413 kts 237°
2026-04-22 19:13 38.43382 -108.09682 37936 ft 412 kts 237°
2026-04-22 19:14 38.39899 -108.15476 37911 ft 411 kts 237°
2026-04-22 19:14 38.36440 -108.21219 37841 ft 411 kts 237°
2026-04-22 19:15 38.33525 -108.26050 37852 ft 411 kts 237°
2026-04-22 19:15 38.29455 -108.32792 37866 ft 415 kts 237°
2026-04-22 19:16 38.25914 -108.38641 37857 ft 418 kts 237°
2026-04-22 19:16 38.22353 -108.44509 37909 ft 416 kts 237°
2026-04-22 19:16 38.20605 -108.47379 37865 ft 405 kts 237°
2026-04-22 19:17 38.18893 -108.50188 37857 ft 400 kts 237°
2026-04-22 19:17 38.15482 -108.55795 37876 ft 402 kts 237°
2026-04-22 19:18 38.12050 -108.61432 37878 ft 405 kts 237°
2026-04-22 19:18 38.08602 -108.67080 37873 ft 408 kts 237°
2026-04-22 19:19 38.05119 -108.72773 37856 ft 408 kts 237°
2026-04-22 19:19 38.01645 -108.78437 37865 ft 406 kts 237°
2026-04-22 19:20 37.98223 -108.84002 37875 ft 395 kts 237°
2026-04-22 19:20 37.94830 -108.89524 37884 ft 399 kts 237°
2026-04-22 19:21 37.91406 -108.95088 37886 ft 400 kts 237°
2026-04-22 19:21 37.87994 -109.00617 37886 ft 401 kts 237°
2026-04-22 19:22 37.84563 -109.06166 37884 ft 400 kts 237°
2026-04-22 19:22 37.81108 -109.11743 37894 ft 399 kts 237°
2026-04-22 19:23 37.77706 -109.17229 37914 ft 398 kts 237°
2026-04-22 19:23 37.74291 -109.22724 37922 ft 397 kts 237°
2026-04-22 19:24 37.70891 -109.28189 37968 ft 396 kts 237°
2026-04-22 19:24 37.67488 -109.33645 38015 ft 395 kts 237°
2026-04-22 19:25 37.64080 -109.39106 38052 ft 396 kts 237°
2026-04-22 19:25 37.60670 -109.44559 38057 ft 396 kts 237°
2026-04-22 19:26 37.57270 -109.49988 38062 ft 397 kts 237°
2026-04-22 19:26 37.53834 -109.55465 38038 ft 398 kts 237°
2026-04-22 19:27 37.50399 -109.60927 38020 ft 398 kts 237°
2026-04-22 19:27 37.46964 -109.66384 37976 ft 398 kts 237°
2026-04-22 19:27 37.45242 -109.69116 37867 ft 398 kts 237°
2026-04-22 19:28 37.43521 -109.71844 37820 ft 398 kts 237°
2026-04-22 19:28 37.40066 -109.77313 37851 ft 399 kts 237°
2026-04-22 19:29 37.36611 -109.82776 37850 ft 400 kts 237°
2026-04-22 19:29 37.33142 -109.88251 37845 ft 401 kts 236°
2026-04-22 19:30 37.30253 -109.92800 37816 ft 400 kts 237°
2026-04-22 19:30 37.26213 -109.99156 37847 ft 400 kts 236°
2026-04-22 19:31 37.22734 -110.04618 37834 ft 400 kts 236°
2026-04-22 19:31 37.19271 -110.10046 37842 ft 399 kts 236°
2026-04-22 19:32 37.15801 -110.15476 37834 ft 399 kts 236°
2026-04-22 19:32 37.12323 -110.20911 37783 ft 399 kts 236°
2026-04-22 19:33 37.08850 -110.26326 37821 ft 400 kts 236°
2026-04-22 19:33 37.05358 -110.31767 37843 ft 402 kts 236°
2026-04-22 19:34 37.01842 -110.37236 37828 ft 403 kts 236°
2026-04-22 19:34 36.98335 -110.42683 37822 ft 405 kts 236°
2026-04-22 19:35 36.94789 -110.48175 37818 ft 406 kts 236°
2026-04-22 19:35 36.91813 -110.52777 37828 ft 406 kts 236°
2026-04-22 19:36 36.87677 -110.59172 37820 ft 408 kts 236°
2026-04-22 19:36 36.84108 -110.64674 37825 ft 407 kts 236°
2026-04-22 19:37 36.80534 -110.70176 37823 ft 407 kts 236°
2026-04-22 19:37 36.76966 -110.75659 37831 ft 408 kts 236°
2026-04-22 19:38 36.73385 -110.81158 37863 ft 408 kts 236°
2026-04-22 19:38 36.69800 -110.86647 37837 ft 407 kts 236°
2026-04-22 19:39 36.66232 -110.92104 37836 ft 405 kts 236°
2026-04-22 19:39 36.62706 -110.97487 37824 ft 403 kts 236°
2026-04-22 19:40 36.59164 -111.02889 37832 ft 402 kts 236°
2026-04-22 19:40 36.55625 -111.08276 37831 ft 402 kts 236°
2026-04-22 19:41 36.52082 -111.13662 37842 ft 402 kts 236°
2026-04-22 19:41 36.49137 -111.18130 37853 ft 402 kts 236°
2026-04-22 19:42 36.45592 -111.23503 37840 ft 402 kts 236°
2026-04-22 19:42 36.42051 -111.28861 37850 ft 402 kts 236°
2026-04-22 19:43 36.36727 -111.36899 37854 ft 401 kts 236°
2026-04-22 19:43 36.33178 -111.42249 37852 ft 401 kts 236°
2026-04-22 19:44 36.29629 -111.47589 37851 ft 401 kts 236°
2026-04-22 19:44 36.26075 -111.52928 37858 ft 401 kts 236°
2026-04-22 19:45 36.22540 -111.58231 37863 ft 402 kts 236°
2026-04-22 19:45 36.18978 -111.63566 37858 ft 402 kts 236°
2026-04-22 19:46 36.15413 -111.68897 37856 ft 402 kts 236°
2026-04-22 19:46 36.11824 -111.74262 37853 ft 407 kts 236°
2026-04-22 19:47 36.08402 -111.79804 37906 ft 403 kts 242°
2026-04-22 19:47 36.05670 -111.85853 37999 ft 403 kts 248°
2026-04-22 19:48 36.03548 -111.92242 38043 ft 403 kts 251°
2026-04-22 19:48 36.01529 -111.98655 38098 ft 403 kts 251°
2026-04-22 19:49 35.99482 -112.05105 38144 ft 403 kts 251°
2026-04-22 19:49 35.97423 -112.11537 38152 ft 403 kts 251°
2026-04-22 19:50 35.95359 -112.17955 38154 ft 401 kts 251°
2026-04-22 19:50 35.93304 -112.24327 38143 ft 398 kts 251°
2026-04-22 19:51 35.91258 -112.30661 38106 ft 396 kts 251°
2026-04-22 19:51 35.89222 -112.36951 38071 ft 394 kts 251°
2026-04-22 19:52 35.87188 -112.43221 38032 ft 394 kts 251°
2026-04-22 19:52 35.85164 -112.49450 37948 ft 394 kts 251°
2026-04-22 19:53 35.83124 -112.55710 37941 ft 393 kts 251°
2026-04-22 19:53 35.81086 -112.61950 37945 ft 392 kts 251°
2026-04-22 19:54 35.79044 -112.68194 37940 ft 392 kts 251°
2026-04-22 19:54 35.77004 -112.74416 37946 ft 392 kts 251°
2026-04-22 19:55 35.74958 -112.80644 37950 ft 392 kts 251°
2026-04-22 19:55 35.72910 -112.86864 37964 ft 393 kts 251°
2026-04-22 19:56 35.70854 -112.93096 37953 ft 393 kts 251°
2026-04-22 19:56 35.68805 -112.99298 37962 ft 393 kts 251°
2026-04-22 19:57 35.66741 -113.05528 37948 ft 394 kts 250°
2026-04-22 19:57 35.64668 -113.11775 37967 ft 394 kts 250°
2026-04-22 19:58 35.62593 -113.18017 37952 ft 395 kts 250°
2026-04-22 19:58 35.60508 -113.24271 37951 ft 395 kts 250°
2026-04-22 20:00 35.53182 -113.46089 37935 ft 393 kts 250°
2026-04-22 20:01 35.51105 -113.52249 37946 ft 393 kts 250°
2026-04-22 20:01 35.49009 -113.58456 37937 ft 394 kts 250°
2026-04-22 20:02 35.46909 -113.64660 37959 ft 394 kts 250°
2026-04-22 20:02 35.44806 -113.70861 37984 ft 394 kts 250°
2026-04-22 20:03 35.42697 -113.77067 38017 ft 394 kts 250°
2026-04-22 20:03 35.40585 -113.83269 38046 ft 394 kts 250°
2026-04-22 20:04 35.38473 -113.89456 38060 ft 394 kts 250°
2026-04-22 20:04 35.36354 -113.95653 38072 ft 393 kts 250°
2026-04-22 20:05 35.34252 -114.01788 38079 ft 393 kts 250°
2026-04-22 20:05 35.32136 -114.07953 38047 ft 393 kts 250°
2026-04-22 20:06 35.30018 -114.14113 38046 ft 393 kts 250°
2026-04-22 20:06 35.27886 -114.20300 38029 ft 394 kts 250°
2026-04-22 20:07 35.25752 -114.26478 38015 ft 395 kts 250°
2026-04-22 20:07 35.23611 -114.32665 37994 ft 395 kts 250°
2026-04-22 20:08 35.21469 -114.38844 37983 ft 394 kts 250°
2026-04-22 20:08 35.19335 -114.44988 37980 ft 394 kts 250°
2026-04-22 20:09 35.17187 -114.51157 37982 ft 394 kts 250°
2026-04-22 20:09 35.15038 -114.57324 37996 ft 394 kts 250°
2026-04-22 20:10 35.12889 -114.63473 37996 ft 393 kts 250°
2026-04-22 20:10 35.10761 -114.69610 38008 ft 392 kts 250°
2026-04-22 20:11 35.08638 -114.75737 38010 ft 391 kts 250°
2026-04-22 20:11 35.06509 -114.81863 37964 ft 392 kts 250°
2026-04-22 20:12 35.04375 -114.87990 37998 ft 392 kts 250°
2026-04-22 20:12 35.02501 -114.93040 38013 ft 394 kts 247°
2026-04-22 20:13 34.99494 -114.99926 38005 ft 397 kts 246°
2026-04-22 20:13 34.96874 -115.05847 38026 ft 396 kts 246°
2026-04-22 20:14 34.94286 -115.11769 38024 ft 395 kts 247°
2026-04-22 20:14 34.91716 -115.17677 38035 ft 394 kts 247°
2026-04-22 20:15 34.89152 -115.23567 38034 ft 393 kts 247°
2026-04-22 20:15 34.86591 -115.29440 38049 ft 392 kts 247°
2026-04-22 20:16 34.84047 -115.35264 38040 ft 392 kts 247°
2026-04-22 20:16 34.81491 -115.41109 38054 ft 391 kts 247°
2026-04-22 20:17 34.78946 -115.46966 38052 ft 391 kts 248°
2026-04-22 20:17 34.76705 -115.52958 38061 ft 389 kts 250°
2026-04-22 20:18 34.74539 -115.58993 38064 ft 389 kts 250°
2026-04-22 20:18 34.72340 -115.65023 38036 ft 390 kts 250°
2026-04-22 20:19 34.70122 -115.71043 38070 ft 391 kts 250°
2026-04-22 20:19 34.67891 -115.77075 38067 ft 391 kts 250°
2026-04-22 20:20 34.65657 -115.83107 38061 ft 392 kts 250°
2026-04-22 20:20 34.63431 -115.89103 38067 ft 392 kts 250°
2026-04-22 20:21 34.61200 -115.95142 38065 ft 392 kts 250°
2026-04-22 20:21 34.58972 -116.01188 38064 ft 391 kts 250°
2026-04-22 20:22 34.56750 -116.07208 38057 ft 391 kts 250°
2026-04-22 20:22 34.54523 -116.13226 38059 ft 391 kts 250°
2026-04-22 20:23 34.52293 -116.19240 38036 ft 390 kts 250°
2026-04-22 20:23 34.50089 -116.25168 38063 ft 387 kts 250°
2026-04-22 20:24 34.47875 -116.31120 38055 ft 386 kts 250°
2026-04-22 20:24 34.46757 -116.34130 37229 ft 397 kts 250°
2026-04-22 20:24 34.45626 -116.37163 36503 ft 396 kts 250°
2026-04-22 20:24 34.44491 -116.40202 35690 ft 396 kts 249°
2026-04-22 20:25 34.43349 -116.43260 34801 ft 399 kts 249°
2026-04-22 20:25 34.42202 -116.46323 34080 ft 398 kts 249°
2026-04-22 20:25 34.41042 -116.49375 33284 ft 399 kts 247°
2026-04-22 20:25 34.39818 -116.52372 32587 ft 397 kts 246°
2026-04-22 20:26 34.38568 -116.55356 31928 ft 395 kts 246°
2026-04-22 20:26 34.37327 -116.58315 31251 ft 393 kts 246°
2026-04-22 20:26 34.36101 -116.61266 30634 ft 391 kts 246°
2026-04-22 20:26 34.34908 -116.64154 30323 ft 382 kts 246°
2026-04-22 20:27 34.33737 -116.66987 30120 ft 371 kts 246°
2026-04-22 20:27 34.32598 -116.69771 29550 ft 369 kts 246°
2026-04-22 20:27 34.31474 -116.72569 29014 ft 371 kts 246°
2026-04-22 20:27 34.30351 -116.75373 28461 ft 370 kts 246°
2026-04-22 20:28 34.29230 -116.78166 27896 ft 367 kts 246°
2026-04-22 20:28 34.28119 -116.80934 27361 ft 364 kts 246°
2026-04-22 20:28 34.27017 -116.83674 26820 ft 361 kts 246°
2026-04-22 20:28 34.25918 -116.86404 26292 ft 359 kts 246°
2026-04-22 20:29 34.24830 -116.89100 25761 ft 356 kts 246°
2026-04-22 20:29 34.23747 -116.91782 25247 ft 354 kts 246°
2026-04-22 20:29 34.22672 -116.94441 24723 ft 352 kts 246°
2026-04-22 20:29 34.21610 -116.97063 24208 ft 350 kts 245°
2026-04-22 20:30 34.20621 -116.99743 23689 ft 349 kts 250°
2026-04-22 20:30 34.19853 -117.02526 23058 ft 347 kts 253°
2026-04-22 20:30 34.19165 -117.05296 22556 ft 342 kts 254°
2026-04-22 20:30 34.18465 -117.08035 22028 ft 341 kts 253°
2026-04-22 20:31 34.17741 -117.10756 21520 ft 339 kts 253°
2026-04-22 20:31 34.17015 -117.13450 21021 ft 337 kts 253°
2026-04-22 20:31 34.16286 -117.16137 20508 ft 334 kts 253°
2026-04-22 20:31 34.15559 -117.18790 20083 ft 333 kts 253°
2026-04-22 20:32 34.15074 -117.20549 19751 ft 332 kts 253°
2026-04-22 20:32 34.14343 -117.23194 19257 ft 331 kts 253°
2026-04-22 20:32 34.13616 -117.25831 18773 ft 330 kts 253°
2026-04-22 20:32 34.12891 -117.28465 18239 ft 330 kts 253°
2026-04-22 20:33 34.12170 -117.31082 17709 ft 328 kts 253°
2026-04-22 20:33 34.11450 -117.33688 17202 ft 326 kts 253°
2026-04-22 20:33 34.10735 -117.36277 16708 ft 324 kts 253°
2026-04-22 20:33 34.10050 -117.38855 16222 ft 322 kts 255°
2026-04-22 20:34 34.09410 -117.41436 15731 ft 320 kts 255°
2026-04-22 20:34 34.08777 -117.44006 15268 ft 319 kts 255°
2026-04-22 20:34 34.08140 -117.46565 14791 ft 318 kts 255°
2026-04-22 20:34 34.07503 -117.49108 14251 ft 319 kts 255°
2026-04-22 20:35 34.06859 -117.51661 13676 ft 313 kts 255°
2026-04-22 20:35 34.06232 -117.54110 13204 ft 299 kts 255°
2026-04-22 20:35 34.05624 -117.56479 12820 ft 295 kts 255°
2026-04-22 20:35 34.05018 -117.58854 12449 ft 303 kts 255°
2026-04-22 20:36 34.04394 -117.61297 12048 ft 304 kts 255°
2026-04-22 20:36 34.03775 -117.63719 11648 ft 302 kts 255°
2026-04-22 20:36 34.03156 -117.66130 11253 ft 299 kts 255°
2026-04-22 20:36 34.02543 -117.68515 10901 ft 297 kts 255°
2026-04-22 20:37 34.02008 -117.70902 10512 ft 290 kts 262°
2026-04-22 20:37 34.01763 -117.73245 10134 ft 274 kts 266°
2026-04-22 20:37 34.01586 -117.75478 9741 ft 261 kts 266°
2026-04-22 20:37 34.01412 -117.77617 9390 ft 254 kts 266°
2026-04-22 20:38 34.01224 -117.79769 9085 ft 262 kts 265°
2026-04-22 20:38 34.01019 -117.81968 8713 ft 264 kts 265°
2026-04-22 20:38 34.00807 -117.84174 8358 ft 264 kts 265°
2026-04-22 20:38 34.00593 -117.86373 8007 ft 265 kts 265°
2026-04-22 20:39 34.00378 -117.88577 7666 ft 264 kts 265°
2026-04-22 20:39 34.00188 -117.90759 7310 ft 264 kts 267°
2026-04-22 20:39 34.00020 -117.92961 6973 ft 265 kts 266°
2026-04-22 20:39 33.99823 -117.95169 6628 ft 266 kts 265°
2026-04-22 20:40 33.99605 -117.97391 6257 ft 267 kts 265°
2026-04-22 20:40 33.99378 -117.99614 5976 ft 265 kts 264°
2026-04-22 20:40 33.99152 -118.01827 5565 ft 266 kts 263°
2026-04-22 20:40 33.98921 -118.04040 5232 ft 267 kts 263°
2026-04-22 20:41 33.98698 -118.06241 5084 ft 260 kts 263°
2026-04-22 20:41 33.98473 -118.08419 4570 ft 267 kts 264°
2026-04-22 20:41 33.98248 -118.10625 4301 ft 264 kts 263°
2026-04-22 20:41 33.98027 -118.12777 4192 ft 254 kts 263°
2026-04-22 20:42 33.97813 -118.14848 4097 ft 244 kts 263°
2026-04-22 20:42 33.97609 -118.16849 3893 ft 240 kts 263°
2026-04-22 20:42 33.97406 -118.18816 3611 ft 239 kts 262°
2026-04-22 20:42 33.97203 -118.20803 3324 ft 236 kts 262°
2026-04-22 20:43 33.97006 -118.22721 2987 ft 223 kts 262°
2026-04-22 20:43 33.96824 -118.24499 2699 ft 210 kts 261°
2026-04-22 20:43 33.96650 -118.26197 2441 ft 201 kts 261°
2026-04-22 20:43 33.96482 -118.27816 2164 ft 188 kts 262°
2026-04-22 20:44 33.96327 -118.29339 1921 ft 179 kts 261°
2026-04-22 20:44 33.96174 -118.30819 1689 ft 175 kts 261°
2026-04-22 20:44 33.96029 -118.32231 1472 ft 166 kts 262°
2026-04-22 20:44 33.95882 -118.33662 1229 ft 173 kts 261°
2026-04-22 20:45 33.95740 -118.35046 974 ft 159 kts 263°
2026-04-22 20:45 33.95617 -118.36265 774 ft 136 kts 261°
2026-04-22 20:45 33.95506 -118.37330 598 ft 123 kts 261°
2026-04-22 20:45 33.95400 -118.38383 458 ft 135 kts 261°
2026-04-22 20:46 33.95184 -118.40494 102 ft 113 kts 259°
2026-04-22 20:46 33.95102 -118.41268 99 ft 66 kts 263°
2026-04-22 20:46 33.95057 -118.41690 99 ft 39 kts 263°
2026-04-22 20:47 33.95023 -118.41998 100 ft 35 kts 257°
2026-04-22 20:47 33.94912 -118.42225 101 ft 26 kts 221°
2026-04-22 20:47 33.94762 -118.42279 104 ft 15 kts 175°
2026-04-22 20:47 33.94708 -118.42271 100 ft 1 kts 173°
2026-04-22 20:48 33.94704 -118.42271 101 ft 0 kts 173°
2026-04-22 20:48 33.94698 -118.42270 100 ft 0 kts 173°
2026-04-22 20:48 33.94697 -118.42270 100 ft 0 kts 173°
2026-04-22 20:48 33.94696 -118.42269 100 ft 1 kts 170°
2026-04-22 20:49 33.94691 -118.42263 100 ft 2 kts 137°
2026-04-22 20:49 33.94687 -118.42229 102 ft 6 kts 91°
2026-04-22 20:49 33.94692 -118.42159 100 ft 13 kts 84°
2026-04-22 20:49 33.94704 -118.42027 99 ft 17 kts 83°
2026-04-22 20:50 33.94718 -118.41885 100 ft 17 kts 83°
2026-04-22 20:50 33.94733 -118.41736 99 ft 19 kts 83°
2026-04-22 20:50 33.94745 -118.41617 98 ft 19 kts 83°
2026-04-22 20:50 33.94755 -118.41515 99 ft 19 kts 83°
2026-04-22 20:51 33.94783 -118.41365 99 ft 16 kts 76°
2026-04-22 20:51 33.94722 -118.41288 100 ft 15 kts 173°
2026-04-22 20:51 33.94619 -118.41272 99 ft 15 kts 173°
2026-04-22 20:51 33.94516 -118.41257 99 ft 15 kts 174°
2026-04-22 20:52 33.94420 -118.41244 98 ft 13 kts 173°
2026-04-22 20:52 33.94328 -118.41230 100 ft 13 kts 173°
2026-04-22 20:52 33.94284 -118.41223 98 ft 13 kts 172°
2026-04-22 20:52 33.94205 -118.41211 99 ft 11 kts 173°
2026-04-22 20:53 33.94170 -118.41194 98 ft 3 kts 112°
2026-04-22 20:53 33.94170 -118.41158 102 ft 5 kts 83°
2026-04-22 20:53 33.94175 -118.41118 99 ft 3 kts 82°
2026-04-22 20:53 33.94177 -118.41097 98 ft 2 kts 82°
2026-04-22 20:54 33.94178 -118.41090 98 ft 0 kts 82°
2026-04-22 20:54 33.94178 -118.41088 98 ft 0 kts 83°